Year,Month,Day,Hour,Minute,Value (Times are PST for temperature in C)
2018,09,28,00,00,13.40
2018,09,28,00,01,13.30
2018,09,28,00,02,13.30
2018,09,28,00,03,13.30
2018,09,28,00,04,13.30
2018,09,28,00,05,13.30
2018,09,28,00,06,13.30
2018,09,28,00,07,13.30
2018,09,28,00,08,13.30
2018,09,28,00,09,13.30
2018,09,28,00,10,13.30
2018,09,28,00,11,13.30
2018,09,28,00,12,13.30
2018,09,28,00,13,13.30
2018,09,28,00,14,13.30
2018,09,28,00,15,13.30
2018,09,28,00,16,13.30
2018,09,28,00,17,13.30
2018,09,28,00,18,13.30
2018,09,28,00,19,13.30
2018,09,28,00,20,13.30
2018,09,28,00,21,13.20
2018,09,28,00,22,13.20
2018,09,28,00,23,13.20
2018,09,28,00,24,13.20
2018,09,28,00,25,13.20
2018,09,28,00,26,13.10
2018,09,28,00,27,13.10
2018,09,28,00,28,13.10
2018,09,28,00,29,13.10
2018,09,28,00,30,13.10
2018,09,28,00,31,13.10
2018,09,28,00,32,13.10
2018,09,28,00,33,13.00
2018,09,28,00,34,13.00
2018,09,28,00,35,13.00
2018,09,28,00,36,13.00
2018,09,28,00,37,13.00
2018,09,28,00,38,12.90
2018,09,28,00,39,12.90
2018,09,28,00,40,12.90
2018,09,28,00,41,12.90
2018,09,28,00,42,12.90
2018,09,28,00,43,12.90
2018,09,28,00,44,12.90
2018,09,28,00,45,12.80
2018,09,28,00,46,12.80
2018,09,28,00,47,12.80
2018,09,28,00,48,12.80
2018,09,28,00,49,12.80
2018,09,28,00,50,12.80
2018,09,28,00,51,12.80
2018,09,28,00,52,12.80
2018,09,28,00,53,12.70
2018,09,28,00,54,12.70
2018,09,28,00,55,12.70
2018,09,28,00,56,12.70
2018,09,28,00,57,12.70
2018,09,28,00,58,12.60
2018,09,28,00,59,12.60
2018,09,28,01,00,12.60
2018,09,28,01,01,12.50
2018,09,28,01,02,12.50
2018,09,28,01,03,12.50
2018,09,28,01,04,12.40
2018,09,28,01,05,12.40
2018,09,28,01,06,12.40
2018,09,28,01,07,12.40
2018,09,28,01,08,12.40
2018,09,28,01,09,12.30
2018,09,28,01,10,12.30
2018,09,28,01,11,12.30
2018,09,28,01,12,12.30
2018,09,28,01,13,12.20
2018,09,28,01,14,12.20
2018,09,28,01,15,12.20
2018,09,28,01,16,12.20
2018,09,28,01,17,12.10
2018,09,28,01,18,12.10
2018,09,28,01,19,12.10
2018,09,28,01,20,12.10
2018,09,28,01,21,12.10
2018,09,28,01,22,12.10
2018,09,28,01,23,12.00
2018,09,28,01,24,12.00
2018,09,28,01,25,12.00
2018,09,28,01,26,12.00
2018,09,28,01,27,12.00
2018,09,28,01,28,12.00
2018,09,28,01,29,11.90
2018,09,28,01,30,11.90
2018,09,28,01,31,11.90
2018,09,28,01,32,11.90
2018,09,28,01,33,11.90
2018,09,28,01,34,11.90
2018,09,28,01,35,11.80
2018,09,28,01,36,11.80
2018,09,28,01,37,11.80
2018,09,28,01,38,11.80
2018,09,28,01,39,11.80
2018,09,28,01,40,11.70
2018,09,28,01,41,11.70
2018,09,28,01,42,11.70
2018,09,28,01,43,11.70
2018,09,28,01,44,11.70
2018,09,28,01,45,11.70
2018,09,28,01,46,11.60
2018,09,28,01,47,11.60
2018,09,28,01,48,11.60
2018,09,28,01,49,11.60
2018,09,28,01,50,11.50
2018,09,28,01,51,11.50
2018,09,28,01,52,11.50
2018,09,28,01,53,11.50
2018,09,28,01,54,11.50
2018,09,28,01,55,11.50
2018,09,28,01,56,11.50
2018,09,28,01,57,11.40
2018,09,28,01,58,11.40
2018,09,28,01,59,11.40
2018,09,28,02,00,11.40
2018,09,28,02,01,11.40
2018,09,28,02,02,11.40
2018,09,28,02,03,11.40
2018,09,28,02,04,11.30
2018,09,28,02,05,11.30
2018,09,28,02,06,11.30
2018,09,28,02,07,11.30
2018,09,28,02,08,11.30
2018,09,28,02,09,11.30
2018,09,28,02,10,11.20
2018,09,28,02,11,11.20
2018,09,28,02,12,11.20
2018,09,28,02,13,11.20
2018,09,28,02,14,11.20
2018,09,28,02,15,11.10
2018,09,28,02,16,11.10
2018,09,28,02,17,11.10
2018,09,28,02,18,11.10
2018,09,28,02,19,11.00
2018,09,28,02,20,11.00
2018,09,28,02,21,11.00
2018,09,28,02,22,11.00
2018,09,28,02,23,11.00
2018,09,28,02,24,11.00
2018,09,28,02,25,11.00
2018,09,28,02,26,11.00
2018,09,28,02,27,11.00
2018,09,28,02,28,11.10
2018,09,28,02,29,11.00
2018,09,28,02,30,11.00
2018,09,28,02,31,11.00
2018,09,28,02,32,11.00
2018,09,28,02,33,11.00
2018,09,28,02,34,11.00
2018,09,28,02,35,10.90
2018,09,28,02,36,10.90
2018,09,28,02,37,10.90
2018,09,28,02,38,10.80
2018,09,28,02,39,10.80
2018,09,28,02,40,10.80
2018,09,28,02,41,10.80
2018,09,28,02,42,10.80
2018,09,28,02,43,10.80
2018,09,28,02,44,10.80
2018,09,28,02,45,10.70
2018,09,28,02,46,10.80
2018,09,28,02,47,10.70
2018,09,28,02,48,10.70
2018,09,28,02,49,10.70
2018,09,28,02,50,10.70
2018,09,28,02,51,10.70
2018,09,28,02,52,10.70
2018,09,28,02,53,10.60
2018,09,28,02,54,10.60
2018,09,28,02,55,10.60
2018,09,28,02,56,10.60
2018,09,28,02,57,10.60
2018,09,28,02,58,10.60
2018,09,28,02,59,10.60
2018,09,28,03,00,10.60
2018,09,28,03,01,10.60
2018,09,28,03,02,10.50
2018,09,28,03,03,10.50
2018,09,28,03,04,10.50
2018,09,28,03,05,10.50
2018,09,28,03,06,10.50
2018,09,28,03,07,10.50
2018,09,28,03,08,10.50
2018,09,28,03,09,10.40
2018,09,28,03,10,10.40
2018,09,28,03,11,10.40
2018,09,28,03,12,10.40
2018,09,28,03,13,10.40
2018,09,28,03,14,10.40
2018,09,28,03,15,10.40
2018,09,28,03,16,10.40
2018,09,28,03,17,10.40
2018,09,28,03,18,10.40
2018,09,28,03,19,10.40
2018,09,28,03,20,10.30
2018,09,28,03,21,10.30
2018,09,28,03,22,10.30
2018,09,28,03,23,10.30
2018,09,28,03,24,10.30
2018,09,28,03,25,10.30
2018,09,28,03,26,10.20
2018,09,28,03,27,10.20
2018,09,28,03,28,10.20
2018,09,28,03,29,10.20
2018,09,28,03,30,10.20
2018,09,28,03,31,10.10
2018,09,28,03,32,10.10
2018,09,28,03,33,10.10
2018,09,28,03,34,10.10
2018,09,28,03,35,10.10
2018,09,28,03,36,10.10
2018,09,28,03,37,10.00
2018,09,28,03,38,10.00
2018,09,28,03,39,10.00
2018,09,28,03,40,10.00
2018,09,28,03,41,10.00
2018,09,28,03,42,10.00
2018,09,28,03,43,10.00
2018,09,28,03,44,10.00
2018,09,28,03,45,10.00
2018,09,28,03,46,9.90
2018,09,28,03,47,9.90
2018,09,28,03,48,9.90
2018,09,28,03,49,9.90
2018,09,28,03,50,9.90
2018,09,28,03,51,9.90
2018,09,28,03,52,9.80
2018,09,28,03,53,9.90
2018,09,28,03,54,9.80
2018,09,28,03,55,9.80
2018,09,28,03,56,9.80
2018,09,28,03,57,9.80
2018,09,28,03,58,9.80
2018,09,28,03,59,9.80
2018,09,28,04,00,9.80
2018,09,28,04,01,9.80
2018,09,28,04,02,9.80
2018,09,28,04,03,9.80
2018,09,28,04,04,9.80
2018,09,28,04,05,9.80
2018,09,28,04,06,9.80
2018,09,28,04,07,9.80
2018,09,28,04,08,9.70
2018,09,28,04,09,9.70
2018,09,28,04,10,9.70
2018,09,28,04,11,9.70
2018,09,28,04,12,9.70
2018,09,28,04,13,9.60
2018,09,28,04,14,9.60
2018,09,28,04,15,9.60
2018,09,28,04,16,9.60
2018,09,28,04,17,9.60
2018,09,28,04,18,9.60
2018,09,28,04,19,9.60
2018,09,28,04,20,9.60
2018,09,28,04,21,9.60
2018,09,28,04,22,9.60
2018,09,28,04,23,9.60
2018,09,28,04,24,9.60
2018,09,28,04,25,9.60
2018,09,28,04,26,9.60
2018,09,28,04,27,9.60
2018,09,28,04,28,9.60
2018,09,28,04,29,9.60
2018,09,28,04,30,9.60
2018,09,28,04,31,9.60
2018,09,28,04,32,9.60
2018,09,28,04,33,9.60
2018,09,28,04,34,9.60
2018,09,28,04,35,9.60
2018,09,28,04,36,9.60
2018,09,28,04,37,9.60
2018,09,28,04,38,9.60
2018,09,28,04,39,9.50
2018,09,28,04,40,9.50
2018,09,28,04,41,9.50
2018,09,28,04,42,9.50
2018,09,28,04,43,9.50
2018,09,28,04,44,9.50
2018,09,28,04,45,9.50
2018,09,28,04,46,9.40
2018,09,28,04,47,9.40
2018,09,28,04,48,9.40
2018,09,28,04,49,9.40
2018,09,28,04,50,9.40
2018,09,28,04,51,9.40
2018,09,28,04,52,9.40
2018,09,28,04,53,9.40
2018,09,28,04,54,9.40
2018,09,28,04,55,9.40
2018,09,28,04,56,9.40
2018,09,28,04,57,9.40
2018,09,28,04,58,9.30
2018,09,28,04,59,9.30
2018,09,28,05,00,9.30
2018,09,28,05,01,9.30
2018,09,28,05,02,9.30
2018,09,28,05,03,9.30
2018,09,28,05,04,9.30
2018,09,28,05,05,9.20
2018,09,28,05,06,9.20
2018,09,28,05,07,9.20
2018,09,28,05,08,9.20
2018,09,28,05,09,9.20
2018,09,28,05,10,9.20
2018,09,28,05,11,9.20
2018,09,28,05,12,9.10
2018,09,28,05,13,9.10
2018,09,28,05,14,9.10
2018,09,28,05,15,9.10
2018,09,28,05,16,9.10
2018,09,28,05,17,9.10
2018,09,28,05,18,9.10
2018,09,28,05,19,9.10
2018,09,28,05,20,9.10
2018,09,28,05,21,9.10
2018,09,28,05,22,9.10
2018,09,28,05,23,9.10
2018,09,28,05,24,9.10
2018,09,28,05,25,9.00
2018,09,28,05,26,9.00
2018,09,28,05,27,9.10
2018,09,28,05,28,9.10
2018,09,28,05,29,9.10
2018,09,28,05,30,9.10
2018,09,28,05,31,9.10
2018,09,28,05,32,9.10
2018,09,28,05,33,9.10
2018,09,28,05,34,9.10
2018,09,28,05,35,9.10
2018,09,28,05,36,9.10
2018,09,28,05,37,9.10
2018,09,28,05,38,9.10
2018,09,28,05,39,9.10
2018,09,28,05,40,9.20
2018,09,28,05,41,9.20
2018,09,28,05,42,9.10
2018,09,28,05,43,9.20
2018,09,28,05,44,9.10
2018,09,28,05,45,9.10
2018,09,28,05,46,9.10
2018,09,28,05,47,9.10
2018,09,28,05,48,9.10
2018,09,28,05,49,9.10
2018,09,28,05,50,9.10
2018,09,28,05,51,9.10
2018,09,28,05,52,9.10
2018,09,28,05,53,9.00
2018,09,28,05,54,9.00
2018,09,28,05,55,9.00
2018,09,28,05,56,9.00
2018,09,28,05,57,8.90
2018,09,28,05,58,8.90
2018,09,28,05,59,8.90
2018,09,28,06,00,8.90
2018,09,28,06,01,8.90
2018,09,28,06,02,8.90
2018,09,28,06,03,8.90
2018,09,28,06,04,8.90
2018,09,28,06,05,8.80
2018,09,28,06,06,8.80
2018,09,28,06,07,8.80
2018,09,28,06,08,8.80
2018,09,28,06,09,8.80
2018,09,28,06,10,8.80
2018,09,28,06,11,8.70
2018,09,28,06,12,8.70
2018,09,28,06,13,8.70
2018,09,28,06,14,8.70
2018,09,28,06,15,8.70
2018,09,28,06,16,8.70
2018,09,28,06,17,8.60
2018,09,28,06,18,8.70
2018,09,28,06,19,8.70
2018,09,28,06,20,8.70
2018,09,28,06,21,8.80
2018,09,28,06,22,8.80
2018,09,28,06,23,8.80
2018,09,28,06,24,8.80
2018,09,28,06,25,8.80
2018,09,28,06,26,8.80
2018,09,28,06,27,8.80
2018,09,28,06,28,8.80
2018,09,28,06,29,8.80
2018,09,28,06,30,8.80
2018,09,28,06,31,8.80
2018,09,28,06,32,8.80
2018,09,28,06,33,8.70
2018,09,28,06,34,8.70
2018,09,28,06,35,8.70
2018,09,28,06,36,8.70
2018,09,28,06,37,8.60
2018,09,28,06,38,8.60
2018,09,28,06,39,8.60
2018,09,28,06,40,8.60
2018,09,28,06,41,8.50
2018,09,28,06,42,8.50
2018,09,28,06,43,8.50
2018,09,28,06,44,8.50
2018,09,28,06,45,8.50
2018,09,28,06,46,8.40
2018,09,28,06,47,8.40
2018,09,28,06,48,8.40
2018,09,28,06,49,8.50
2018,09,28,06,50,8.40
2018,09,28,06,51,8.50
2018,09,28,06,52,8.50
2018,09,28,06,53,8.50
2018,09,28,06,54,8.50
2018,09,28,06,55,8.50
2018,09,28,06,56,8.50
2018,09,28,06,57,8.50
2018,09,28,06,58,8.50
2018,09,28,06,59,8.50
2018,09,28,07,00,8.50
2018,09,28,07,01,8.50
2018,09,28,07,02,8.50
2018,09,28,07,03,8.50
2018,09,28,07,04,8.50
2018,09,28,07,05,8.50
2018,09,28,07,06,8.50
2018,09,28,07,07,8.40
2018,09,28,07,08,8.40
2018,09,28,07,09,8.40
2018,09,28,07,10,8.40
2018,09,28,07,11,8.40
2018,09,28,07,12,8.40
2018,09,28,07,13,8.40
2018,09,28,07,14,8.40
2018,09,28,07,15,8.40
2018,09,28,07,16,8.40
2018,09,28,07,17,8.40
2018,09,28,07,18,8.40
2018,09,28,07,19,8.40
2018,09,28,07,20,8.40
2018,09,28,07,21,8.40
2018,09,28,07,22,8.40
2018,09,28,07,23,8.40
2018,09,28,07,24,8.50
2018,09,28,07,25,8.50
2018,09,28,07,26,8.50
2018,09,28,07,27,8.50
2018,09,28,07,28,8.40
2018,09,28,07,29,8.40
2018,09,28,07,30,8.40
2018,09,28,07,31,8.40
2018,09,28,07,32,8.40
2018,09,28,07,33,8.40
2018,09,28,07,34,8.40
2018,09,28,07,35,8.30
2018,09,28,07,36,8.30
2018,09,28,07,37,8.30
2018,09,28,07,38,8.30
2018,09,28,07,39,8.30
2018,09,28,07,40,8.30
2018,09,28,07,41,8.30
2018,09,28,07,42,8.30
2018,09,28,07,43,8.20
2018,09,28,07,44,8.20
2018,09,28,07,45,8.20
2018,09,28,07,46,8.20
2018,09,28,07,47,8.20
2018,09,28,07,48,8.20
2018,09,28,07,49,8.20
2018,09,28,07,50,8.20
2018,09,28,07,51,8.20
2018,09,28,07,52,8.20
2018,09,28,07,53,8.20
2018,09,28,07,54,8.20
2018,09,28,07,55,8.20
2018,09,28,07,56,8.20
2018,09,28,07,57,8.20
2018,09,28,07,58,8.20
2018,09,28,07,59,8.20
2018,09,28,08,00,8.20
2018,09,28,08,01,8.30
2018,09,28,08,02,8.30
2018,09,28,08,03,8.30
2018,09,28,08,04,8.30
2018,09,28,08,05,8.40
2018,09,28,08,06,8.40
2018,09,28,08,07,8.40
2018,09,28,08,08,8.40
2018,09,28,08,09,8.40
2018,09,28,08,10,8.40
2018,09,28,08,11,8.50
2018,09,28,08,12,8.40
2018,09,28,08,13,8.50
2018,09,28,08,14,8.50
2018,09,28,08,15,8.50
2018,09,28,08,16,8.50
2018,09,28,08,17,8.60
2018,09,28,08,18,8.60
2018,09,28,08,19,8.60
2018,09,28,08,20,8.60
2018,09,28,08,21,8.70
2018,09,28,08,22,8.70
2018,09,28,08,23,8.80
2018,09,28,08,24,8.90
2018,09,28,08,25,8.90
2018,09,28,08,26,9.00
2018,09,28,08,27,9.00
2018,09,28,08,28,9.10
2018,09,28,08,29,9.20
2018,09,28,08,30,9.20
2018,09,28,08,31,9.30
2018,09,28,08,32,9.30
2018,09,28,08,33,9.40
2018,09,28,08,34,9.40
2018,09,28,08,35,9.40
2018,09,28,08,36,9.50
2018,09,28,08,37,9.50
2018,09,28,08,38,9.60
2018,09,28,08,39,9.60
2018,09,28,08,40,9.70
2018,09,28,08,41,9.80
2018,09,28,08,42,9.80
2018,09,28,08,43,9.90
2018,09,28,08,44,10.00
2018,09,28,08,45,10.00
2018,09,28,08,46,10.10
2018,09,28,08,47,10.10
2018,09,28,08,48,10.20
2018,09,28,08,49,10.20
2018,09,28,08,50,10.20
2018,09,28,08,51,10.30
2018,09,28,08,52,10.30
2018,09,28,08,53,10.40
2018,09,28,08,54,10.40
2018,09,28,08,55,10.50
2018,09,28,08,56,10.50
2018,09,28,08,57,10.60
2018,09,28,08,58,10.60
2018,09,28,08,59,10.70
2018,09,28,09,00,10.70
2018,09,28,09,01,10.80
2018,09,28,09,02,10.80
2018,09,28,09,03,10.90
2018,09,28,09,04,11.00
2018,09,28,09,05,11.00
2018,09,28,09,06,11.10
2018,09,28,09,07,11.10
2018,09,28,09,08,11.10
2018,09,28,09,09,11.10
2018,09,28,09,10,11.20
2018,09,28,09,11,11.20
2018,09,28,09,12,11.30
2018,09,28,09,13,11.30
2018,09,28,09,14,11.40
2018,09,28,09,15,11.50
2018,09,28,09,16,11.70
2018,09,28,09,17,11.80
2018,09,28,09,18,11.90
2018,09,28,09,19,12.00
2018,09,28,09,20,12.10
2018,09,28,09,21,12.20
2018,09,28,09,22,12.30
2018,09,28,09,23,12.40
2018,09,28,09,24,12.50
2018,09,28,09,25,12.50
2018,09,28,09,26,12.60
2018,09,28,09,27,12.70
2018,09,28,09,28,12.80
2018,09,28,09,29,12.90
2018,09,28,09,30,13.00
2018,09,28,09,31,13.10
2018,09,28,09,32,13.20
2018,09,28,09,33,13.20
2018,09,28,09,34,13.30
2018,09,28,09,35,13.40
2018,09,28,09,36,13.40
2018,09,28,09,37,13.50
2018,09,28,09,38,13.60
2018,09,28,09,39,13.70
2018,09,28,09,40,13.80
2018,09,28,09,41,13.90
2018,09,28,09,42,13.90
2018,09,28,09,43,14.00
2018,09,28,09,44,14.10
2018,09,28,09,45,14.20
2018,09,28,09,46,14.20
2018,09,28,09,47,14.20
2018,09,28,09,48,14.30
2018,09,28,09,49,14.30
2018,09,28,09,50,14.30
2018,09,28,09,51,14.30
2018,09,28,09,52,14.30
2018,09,28,09,53,14.30
2018,09,28,09,54,14.30
2018,09,28,09,55,14.30
2018,09,28,09,56,14.40
2018,09,28,09,57,14.40
2018,09,28,09,58,14.40
2018,09,28,09,59,14.40
2018,09,28,10,00,14.50
2018,09,28,10,01,14.50
2018,09,28,10,02,14.50
2018,09,28,10,03,14.60
2018,09,28,10,04,14.60
2018,09,28,10,05,14.70
2018,09,28,10,06,14.80
2018,09,28,10,07,14.80
2018,09,28,10,08,14.90
2018,09,28,10,09,14.90
2018,09,28,10,10,14.90
2018,09,28,10,11,15.00
2018,09,28,10,12,15.10
2018,09,28,10,13,15.10
2018,09,28,10,14,15.20
2018,09,28,10,15,15.30
2018,09,28,10,16,15.30
2018,09,28,10,17,15.40
2018,09,28,10,18,15.40
2018,09,28,10,19,15.50
2018,09,28,10,20,15.50
2018,09,28,10,21,15.60
2018,09,28,10,22,15.60
2018,09,28,10,23,15.60
2018,09,28,10,24,15.60
2018,09,28,10,25,15.60
2018,09,28,10,26,15.70
2018,09,28,10,27,15.70
2018,09,28,10,28,15.70
2018,09,28,10,29,15.70
2018,09,28,10,30,15.70
2018,09,28,10,31,15.70
2018,09,28,10,32,15.70
2018,09,28,10,33,15.70
2018,09,28,10,34,15.70
2018,09,28,10,35,15.80
2018,09,28,10,36,15.80
2018,09,28,10,37,15.80
2018,09,28,10,38,15.80
2018,09,28,10,39,15.70
2018,09,28,10,40,15.70
2018,09,28,10,41,15.70
2018,09,28,10,42,15.70
2018,09,28,10,43,15.70
2018,09,28,10,44,15.70
2018,09,28,10,45,15.70
2018,09,28,10,46,15.70
2018,09,28,10,47,15.70
2018,09,28,10,48,15.70
2018,09,28,10,49,15.80
2018,09,28,10,50,15.80
2018,09,28,10,51,15.80
2018,09,28,10,52,15.80
2018,09,28,10,53,15.80
2018,09,28,10,54,15.90
2018,09,28,10,55,15.80
2018,09,28,10,56,15.90
2018,09,28,10,57,15.90
2018,09,28,10,58,15.90
2018,09,28,10,59,16.00
2018,09,28,11,00,16.00
2018,09,28,11,01,16.10
2018,09,28,11,02,16.10
2018,09,28,11,03,16.10
2018,09,28,11,04,16.10
2018,09,28,11,05,16.20
2018,09,28,11,06,16.20
2018,09,28,11,07,16.20
2018,09,28,11,08,16.10
2018,09,28,11,09,16.10
2018,09,28,11,10,16.10
2018,09,28,11,11,16.10
2018,09,28,11,12,16.10
2018,09,28,11,13,16.00
2018,09,28,11,14,15.90
2018,09,28,11,15,15.80
2018,09,28,11,16,15.70
2018,09,28,11,17,15.70
2018,09,28,11,18,15.60
2018,09,28,11,19,15.60
2018,09,28,11,20,15.60
2018,09,28,11,21,15.50
2018,09,28,11,22,15.50
2018,09,28,11,23,15.50
2018,09,28,11,24,15.60
2018,09,28,11,25,15.60
2018,09,28,11,26,15.60
2018,09,28,11,27,15.60
2018,09,28,11,28,15.70
2018,09,28,11,29,15.70
2018,09,28,11,30,15.70
2018,09,28,11,31,15.70
2018,09,28,11,32,15.70
2018,09,28,11,33,15.70
2018,09,28,11,34,15.80
2018,09,28,11,35,15.80
2018,09,28,11,36,15.80
2018,09,28,11,37,15.80
2018,09,28,11,38,15.80
2018,09,28,11,39,15.80
2018,09,28,11,40,15.90
2018,09,28,11,41,15.80
2018,09,28,11,42,15.80
2018,09,28,11,43,15.80
2018,09,28,11,44,15.80
2018,09,28,11,45,15.80
2018,09,28,11,46,15.80
2018,09,28,11,47,15.80
2018,09,28,11,48,15.90
2018,09,28,11,49,15.90
2018,09,28,11,50,16.00
2018,09,28,11,51,16.10
2018,09,28,11,52,16.20
2018,09,28,11,53,16.20
2018,09,28,11,54,16.20
2018,09,28,11,55,16.20
2018,09,28,11,56,16.10
2018,09,28,11,57,16.10
2018,09,28,11,58,16.00
2018,09,28,11,59,16.00
2018,09,28,12,00,15.90
2018,09,28,12,01,15.90
2018,09,28,12,02,15.90
2018,09,28,12,03,15.90
2018,09,28,12,04,15.90
2018,09,28,12,05,16.00
2018,09,28,12,06,16.00
2018,09,28,12,07,16.00
2018,09,28,12,08,16.00
2018,09,28,12,09,16.10
2018,09,28,12,10,16.20
2018,09,28,12,11,16.30
2018,09,28,12,12,16.40
2018,09,28,12,13,16.50
2018,09,28,12,14,16.70
2018,09,28,12,15,16.80
2018,09,28,12,16,16.90
2018,09,28,12,17,17.10
2018,09,28,12,18,17.20
2018,09,28,12,19,17.20
2018,09,28,12,20,17.30
2018,09,28,12,21,17.30
2018,09,28,12,22,17.30
2018,09,28,12,23,17.40
2018,09,28,12,24,17.40
2018,09,28,12,25,17.50
2018,09,28,12,26,17.50
2018,09,28,12,27,17.60
2018,09,28,12,28,17.60
2018,09,28,12,29,17.60
2018,09,28,12,30,17.70
2018,09,28,12,31,17.70
2018,09,28,12,32,17.70
2018,09,28,12,33,17.80
2018,09,28,12,34,17.80
2018,09,28,12,35,17.90
2018,09,28,12,36,17.90
2018,09,28,12,37,18.00
2018,09,28,12,38,18.00
2018,09,28,12,39,18.10
2018,09,28,12,40,18.10
2018,09,28,12,41,18.10
2018,09,28,12,42,18.10
2018,09,28,12,43,18.20
2018,09,28,12,44,18.20
2018,09,28,12,45,18.20
2018,09,28,12,46,18.20
2018,09,28,12,47,18.10
2018,09,28,12,48,18.20
2018,09,28,12,49,18.20
2018,09,28,12,50,18.20
2018,09,28,12,51,18.20
2018,09,28,12,52,18.20
2018,09,28,12,53,18.20
2018,09,28,12,54,18.20
2018,09,28,12,55,18.10
2018,09,28,12,56,18.10
2018,09,28,12,57,18.10
2018,09,28,12,58,18.10
2018,09,28,12,59,18.00
2018,09,28,13,00,18.00
2018,09,28,13,01,18.00
2018,09,28,13,02,18.00
2018,09,28,13,03,17.90
2018,09,28,13,04,17.90
2018,09,28,13,05,18.00
2018,09,28,13,06,18.00
2018,09,28,13,07,18.10
2018,09,28,13,08,18.10
2018,09,28,13,09,18.30
2018,09,28,13,10,18.30
2018,09,28,13,11,18.40
2018,09,28,13,12,18.50
2018,09,28,13,13,18.60
2018,09,28,13,14,18.70
2018,09,28,13,15,18.70
2018,09,28,13,16,18.80
2018,09,28,13,17,18.80
2018,09,28,13,18,18.90
2018,09,28,13,19,18.90
2018,09,28,13,20,19.00
2018,09,28,13,21,19.00
2018,09,28,13,22,19.00
2018,09,28,13,23,19.10
2018,09,28,13,24,19.20
2018,09,28,13,25,19.30
2018,09,28,13,26,19.30
2018,09,28,13,27,19.30
2018,09,28,13,28,19.30
2018,09,28,13,29,19.30
2018,09,28,13,30,19.20
2018,09,28,13,31,19.20
2018,09,28,13,32,19.10
2018,09,28,13,33,19.10
2018,09,28,13,34,19.20
2018,09,28,13,35,19.20
2018,09,28,13,36,19.20
2018,09,28,13,37,19.30
2018,09,28,13,38,19.40
2018,09,28,13,39,19.40
2018,09,28,13,40,19.50
2018,09,28,13,41,19.60
2018,09,28,13,42,19.60
2018,09,28,13,43,19.70
2018,09,28,13,44,19.70
2018,09,28,13,45,19.70
2018,09,28,13,46,19.70
2018,09,28,13,47,19.60
2018,09,28,13,48,19.60
2018,09,28,13,49,19.60
2018,09,28,13,50,19.60
2018,09,28,13,51,19.60
2018,09,28,13,52,19.60
2018,09,28,13,53,19.60
2018,09,28,13,54,19.60
2018,09,28,13,55,19.60
2018,09,28,13,56,19.60
2018,09,28,13,57,19.60
2018,09,28,13,58,19.60
2018,09,28,13,59,19.60
2018,09,28,14,00,19.60
2018,09,28,14,01,19.60
2018,09,28,14,02,19.60
2018,09,28,14,03,19.60
2018,09,28,14,04,19.60
2018,09,28,14,05,19.60
2018,09,28,14,06,19.70
2018,09,28,14,07,19.70
2018,09,28,14,08,19.70
2018,09,28,14,09,19.70
2018,09,28,14,10,19.80
2018,09,28,14,11,19.80
2018,09,28,14,12,19.80
2018,09,28,14,13,19.80
2018,09,28,14,14,19.80
2018,09,28,14,15,19.80
2018,09,28,14,16,19.80
2018,09,28,14,17,19.80
2018,09,28,14,18,19.80
2018,09,28,14,19,19.80
2018,09,28,14,20,19.80
2018,09,28,14,21,19.80
2018,09,28,14,22,19.90
2018,09,28,14,23,19.90
2018,09,28,14,24,19.90
2018,09,28,14,25,19.90
2018,09,28,14,26,20.00
2018,09,28,14,27,20.00
2018,09,28,14,28,20.00
2018,09,28,14,29,20.00
2018,09,28,14,30,20.00
2018,09,28,14,31,20.10
2018,09,28,14,32,20.10
2018,09,28,14,33,20.10
2018,09,28,14,34,20.10
2018,09,28,14,35,20.10
2018,09,28,14,36,20.10
2018,09,28,14,37,20.20
2018,09,28,14,38,20.20
2018,09,28,14,39,20.30
2018,09,28,14,40,20.30
2018,09,28,14,41,20.30
2018,09,28,14,42,20.30
2018,09,28,14,43,20.30
2018,09,28,14,44,20.30
2018,09,28,14,45,20.40
2018,09,28,14,46,20.40
2018,09,28,14,47,20.50
2018,09,28,14,48,20.50
2018,09,28,14,49,20.50
2018,09,28,14,50,20.50
2018,09,28,14,51,20.50
2018,09,28,14,52,20.40
2018,09,28,14,53,20.40
2018,09,28,14,54,20.40
2018,09,28,14,55,20.40
2018,09,28,14,56,20.40
2018,09,28,14,57,20.40
2018,09,28,14,58,20.40
2018,09,28,14,59,20.50
2018,09,28,15,00,20.40
2018,09,28,15,01,20.40
2018,09,28,15,02,20.40
2018,09,28,15,03,20.40
2018,09,28,15,04,20.40
2018,09,28,15,05,20.40
2018,09,28,15,06,20.40
2018,09,28,15,07,20.40
2018,09,28,15,08,20.40
2018,09,28,15,09,20.50
2018,09,28,15,10,20.50
2018,09,28,15,11,20.50
2018,09,28,15,12,20.50
2018,09,28,15,13,20.50
2018,09,28,15,14,20.60
2018,09,28,15,15,20.60
2018,09,28,15,16,20.60
2018,09,28,15,17,20.60
2018,09,28,15,18,20.60
2018,09,28,15,19,20.60
2018,09,28,15,20,20.60
2018,09,28,15,21,20.70
2018,09,28,15,22,20.70
2018,09,28,15,23,20.70
2018,09,28,15,24,20.70
2018,09,28,15,25,20.70
2018,09,28,15,26,20.70
2018,09,28,15,27,20.70
2018,09,28,15,28,20.70
2018,09,28,15,29,20.70
2018,09,28,15,30,20.70
2018,09,28,15,31,20.70
2018,09,28,15,32,20.70
2018,09,28,15,33,20.70
2018,09,28,15,34,20.70
2018,09,28,15,35,20.60
2018,09,28,15,36,20.70
2018,09,28,15,37,20.70
2018,09,28,15,38,20.60
2018,09,28,15,39,20.60
2018,09,28,15,40,20.60
2018,09,28,15,41,20.60
2018,09,28,15,42,20.60
2018,09,28,15,43,20.60
2018,09,28,15,44,20.60
2018,09,28,15,45,20.60
2018,09,28,15,46,20.60
2018,09,28,15,47,20.50
2018,09,28,15,48,20.60
2018,09,28,15,49,20.60
2018,09,28,15,50,20.60
2018,09,28,15,51,20.60
2018,09,28,15,52,20.70
2018,09,28,15,53,20.70
2018,09,28,15,54,20.80
2018,09,28,15,55,20.80
2018,09,28,15,56,20.80
2018,09,28,15,57,20.90
2018,09,28,15,58,20.90
2018,09,28,15,59,20.90
2018,09,28,16,00,20.90
2018,09,28,16,01,20.90
2018,09,28,16,02,21.00
2018,09,28,16,03,21.10
2018,09,28,16,04,21.10
2018,09,28,16,05,21.10
2018,09,28,16,06,21.10
2018,09,28,16,07,21.10
2018,09,28,16,08,21.10
2018,09,28,16,09,21.10
2018,09,28,16,10,21.10
2018,09,28,16,11,21.10
2018,09,28,16,12,21.10
2018,09,28,16,13,21.10
2018,09,28,16,14,21.10
2018,09,28,16,15,21.10
2018,09,28,16,16,21.10
2018,09,28,16,17,21.10
2018,09,28,16,18,21.10
2018,09,28,16,19,21.10
2018,09,28,16,20,21.10
2018,09,28,16,21,21.20
2018,09,28,16,22,21.20
2018,09,28,16,23,21.20
2018,09,28,16,24,21.20
2018,09,28,16,25,21.20
2018,09,28,16,26,21.10
2018,09,28,16,27,21.10
2018,09,28,16,28,21.10
2018,09,28,16,29,21.10
2018,09,28,16,30,21.10
2018,09,28,16,31,21.10
2018,09,28,16,32,21.10
2018,09,28,16,33,21.10
2018,09,28,16,34,21.10
2018,09,28,16,35,21.10
2018,09,28,16,36,21.10
2018,09,28,16,37,21.10
2018,09,28,16,38,21.10
2018,09,28,16,39,21.10
2018,09,28,16,40,21.10
2018,09,28,16,41,21.10
2018,09,28,16,42,21.00
2018,09,28,16,43,21.00
2018,09,28,16,44,21.00
2018,09,28,16,45,21.00
2018,09,28,16,46,21.00
2018,09,28,16,47,21.00
2018,09,28,16,48,20.90
2018,09,28,16,49,20.90
2018,09,28,16,50,20.90
2018,09,28,16,51,20.90
2018,09,28,16,52,20.90
2018,09,28,16,53,20.90
2018,09,28,16,54,20.90
2018,09,28,16,55,20.90
2018,09,28,16,56,20.90
2018,09,28,16,57,20.90
2018,09,28,16,58,20.90
2018,09,28,16,59,20.90
2018,09,28,17,00,20.90
2018,09,28,17,01,20.90
2018,09,28,17,02,20.80
2018,09,28,17,03,20.80
2018,09,28,17,04,20.80
2018,09,28,17,05,20.80
2018,09,28,17,06,20.80
2018,09,28,17,07,20.80
2018,09,28,17,08,20.80
2018,09,28,17,09,20.80
2018,09,28,17,10,20.80
2018,09,28,17,11,20.80
2018,09,28,17,12,20.80
2018,09,28,17,13,20.80
2018,09,28,17,14,20.70
2018,09,28,17,15,20.70
2018,09,28,17,16,20.70
2018,09,28,17,17,20.70
2018,09,28,17,18,20.70
2018,09,28,17,19,20.70
2018,09,28,17,20,20.70
2018,09,28,17,21,20.70
2018,09,28,17,22,20.60
2018,09,28,17,23,20.60
2018,09,28,17,24,20.60
2018,09,28,17,25,20.50
2018,09,28,17,26,20.50
2018,09,28,17,27,20.40
2018,09,28,17,28,20.40
2018,09,28,17,29,20.30
2018,09,28,17,30,20.30
2018,09,28,17,31,20.30
2018,09,28,17,32,20.30